SCP
0 0 0 0 0 0 0 0 0 0 0 0 0 0 0 0 0 0 0 0 0 0 0 0 0 0 0 0 0 0 0 0 0 0 0 0 0 0 0 0 0 0 0
0 0 0 0 0 0 0 0 0 0 0 0 0 0 0 0 0 0 0 0 0 0 0 0 0 0 0 0 0 0 0 0 0 0 0 0 0 0 0 0 0 0 0
0 0 0 0 0 0 0 0 0 0 0 0 0 0 0 0 0 0 0 0 0 0 0 0 0 0 0 0 0 0 0 0 0 0 0 0 0 0 0 0 0 0 0
0 0 0 0 0 0 0 0 0 0 0 0 0 0 0 0 0 0 0 0 0 0 0 0 0 0 0 0 0 0 0 0 0 0 0 0 0 0 0 0 0 0 0
0 0 0 0 0 0 0 0 0 0 0 0 0 0 0 0 0 0 0 0 0 0 0 0 0 0 0 0 0 0 0 0 0 0 0 0 0 0 0 0 0 0 0
0 0 0 0 0 0 0 0 0 0 0 0 0 0 0 0 0 0 0 0 0 0 0 0 0 0 0 0 0 0 0 0 0 0 0 0 0 0 0 0 0 0 0
0 0 0 0 0 0 0 0 0 0 0 0 0 0 0 0 0 0 0 0 0 0 0 0 0 0 0 0 0 0 0 0 0 0 0 0 0 0 0 0 0 0 0
0 0 0 0 0 0 0 0 0 0 0 0 0 0 0 0 0 0 0 0 0 0 0 0 0 0 0 0 0 0 0 0 0 0 0 0 0 0 0 0 0 0 0
0 0 0 0 0 0 0 0 0 0 0 0 0 0 0 0 0 0 0 0 0 0 0 0 0 0 0 0 0 0 0 0 0 0 0 0 0 0 0 0 0 0 0
0 0 0 0 0 0 0 0 0 0 0 0 0 0 0 0 0 0 0 0 0 0 0 0 0 0 0 0 0 0 0 0 0 0 0 0 0 0 0 0 0 0 0
0 0 0 0 0 0 0 0 0 0 0 0 0 0 0 0 0 0 0 0 0 0 0 0 0 0 0 0 0 0 0 0 0 0 0 0 0 0 0 0 0 0 0
0 0 0 0 0 0 0 0 0 0 0 0 0 0 0 0 0 0 0 0 0 0 0 0 0 0 0 0 0 0 0 0 0 0 0 0 0 0 0 0 0 0 0
0 0 0 0 0 0 0 0 0 0 0 0 0 0 0 0 0 0 0 0 0 0 0 0 0 0 0 0 0 0 0 0 0 0 0 0 0 0 0 0 0 0 0
0 0 0 0 0 0 0 0 0 0 0 0 0 0 0 0 0 0 0 0 0 0 0 0 0 0 0 0 0 0 0 0 0 0 0 0 0 0 0 0 0 0 0
0 0 0 0 0 0 0 0 0 0 0 0 0 0 0 0 0 0 0 0 0 0 0 0 0 0 0 0 0 0 0 0 0 0 0 0 0 0 0 0 0 0 0
0 0 0 0 0 0 0 0 0 0 0 0 0 0 0 0 0 0 0 0 0 0 0 0 0 0 0 0 0 0 0 0 0 0 0 0 0 0 0 0 0 0 0
0 0 0 0 0 0 0 0 0 0 0 0 0 0 0 0 0 0 0 0 0 0 0 0 0 0 0 0 0 0 0 0 0 0 0 0 0 0 0 0 0 0 0
0 0 0 0 0 0 0 0 0 0 0 0 0 0 0 0 0 0 0 0 0 0 0 0 0 0 0 0 0 0 0 0 0 0 0 0 0 0 0 0 0 0 0
0 0 0 0 0 0 0 0 0 0 0 0 0 0 0 0 0 0 0 0 0 0 0 0 0 0 0 0 0 0 0 0 0 0 0 0 0 0 0 0 0 0 0
0 0 0 0 0 0 0 0 0 0 0 0 0 0 0 0 0 0 0 0 0 0 0 0 0 0 0 0 0 0 0 0 0 0 0 0 0 0 0 0 0 0 0
0 0 0 0 0 0 0 0 0 0 0 0 0 0 0 0 0 0 0 0 0 0 0 0 0 0 0 0 0 0 0 0 0 0 0 0 0 0 0 0 0 0 0
0 0 0 0 0 0 0 0 0 0 0 0 0 0 0 0 -0 -0 0 0 0 0 0 0 0 0 0 0 0 0 0 0 0 0 0 0 0 0 0 0 0 0 0
0 0 0 0 0 0 0 0 0 0 0 0 0 0 0 -0 -0 -0 -0 0 0 0 0 0 0 0 0 0 0 0 0 0 0 0 0 0 0 0 0 0 0 0 0
0 0 0 0 0 0 0 0 0 0 0 0 0 0 0 -0 -0 -0 -0 0 0 0 0 0 0 0 0 0 0 0 0 0 0 0 0 0 0 0 0 0 0 0 0
0 0 0 0 0 0 0 0 0 0 0 0 0 0 0 0 0 0 0 0 0 0 0 0 0 0 0 0 0 0 0 0 0 0 0 0 0 0 0 0 0 0 0
0 0 0 0 0 0 0 0 0 0 0 0 0 0 0 0 0 0 0 0 0 0 0 0 0 0 0 0 0 0 0 0 0 0 0 0 0 0 0 0 0 0 0
Wind_Speed
1 1 1 4 6 6 7 7 8 8 9 8 9 9 9 9 9 9 9 9 9 9 9 10 10 9 9 9 9 9 9 8 8 8 8 7 7 7 6 6 6 4 6
1 1 3 4 6 6 7 7 8 8 8 8 8 9 9 9 9 9 8 9 9 9 9 9 9 10 9 9 9 9 9 8 8 8 8 7 6 6 6 6 5 4 6
2 1 2 4 5 6 7 7 7 7 8 8 8 8 8 8 8 8 8 9 9 9 9 9 10 10 9 9 10 10 9 9 8 8 8 4 4 5 5 5 6 6 6
3 2 2 5 6 6 6 6 7 7 7 7 8 8 8 8 8 8 8 8 9 9 9 9 10 10 10 10 10 10 10 9 9 8 5 4 3 5 5 5 5 5 5
2 2 2 6 6 6 6 6 7 7 7 7 8 8 8 8 7 7 7 8 9 9 9 9 9 10 10 10 10 10 9 9 9 7 4 4 3 5 5 5 5 5 6
2 2 2 6 7 6 6 6 7 7 7 7 7 7 8 7 7 7 7 8 8 9 9 9 9 10 10 10 10 10 9 10 8 4 4 4 3 5 6 6 6 5 6
2 2 2 5 6 6 6 6 6 6 7 7 7 7 7 7 8 7 7 8 8 9 9 9 9 10 10 11 10 10 10 10 6 4 4 3 3 6 7 7 6 6 6
2 2 2 4 5 5 5 5 5 6 6 6 6 6 6 6 7 7 7 8 8 8 8 9 9 10 10 10 10 10 10 9 6 5 4 3 5 7 7 7 7 6 7
3 3 2 2 3 4 4 5 5 5 5 5 5 5 6 6 6 6 7 7 8 8 8 9 9 9 10 10 10 10 10 11 6 3 4 3 5 7 8 8 7 7 7
2 2 2 2 3 3 3 4 4 4 4 4 4 4 5 5 5 5 5 6 6 7 8 9 9 9 10 10 10 10 10 8 5 4 3 3 7 8 8 7 7 8 8
2 1 1 2 2 2 2 3 4 4 4 4 3 4 4 3 3 3 4 5 6 7 8 9 9 10 10 10 10 10 8 4 4 3 3 6 8 8 8 7 7 8 8
0 0 1 1 1 1 1 2 2 2 3 3 2 2 2 2 2 3 5 6 7 8 8 9 10 10 7 4 6 8 4 4 4 3 3 8 8 9 9 8 7 8 8
1 1 1 1 1 1 1 1 1 1 2 2 2 2 2 2 2 3 3 4 4 6 4 6 6 4 4 4 3 4 4 4 3 3 5 9 9 9 10 10 9 9 9
1 1 1 1 1 1 1 1 1 1 1 1 1 2 2 2 2 2 2 2 3 2 3 3 3 4 4 4 4 4 5 3 3 3 5 10 10 10 10 11 11 10 10
1 1 1 2 2 1 1 1 1 1 1 1 1 1 2 2 2 2 2 2 2 2 3 3 3 4 4 4 4 4 4 4 4 4 4 10 11 11 10 10 10 10 11
1 1 1 2 2 2 1 1 1 1 1 1 1 1 2 2 2 2 2 2 2 2 2 3 3 4 3 3 4 4 4 4 4 5 4 6 10 11 11 10 10 10 10
1 1 2 2 3 2 2 1 1 1 1 1 1 1 2 2 2 2 2 2 2 2 3 3 4 4 4 4 4 4 3 3 4 5 5 4 5 9 11 11 10 10 10
1 2 2 2 3 3 2 1 1 1 2 1 1 1 2 2 3 2 2 2 2 2 3 3 3 3 4 3 3 3 3 3 4 4 4 4 4 5 8 11 11 10 9
2 2 2 2 3 3 2 2 2 2 2 1 1 1 1 2 2 2 2 2 2 3 3 3 3 3 3 3 3 3 3 3 3 4 4 4 4 5 4 8 11 11 10
2 2 2 3 3 3 3 2 2 3 2 2 1 1 2 2 3 2 2 2 3 3 3 3 3 3 2 2 3 4 3 3 3 4 3 4 4 5 5 5 5 7 10
2 2 2 3 3 3 2 2 2 1 1 2 1 2 2 2 3 3 2 2 2 3 2 3 3 3 2 2 3 3 3 4 4 3 3 3 4 4 5 5 4 4 4
2 2 2 2 3 2 2 2 2 2 1 1 1 2 2 2 2 3 3 2 2 3 3 3 3 2 1 1 2 2 2 3 4 4 3 3 3 3 4 5 5 4 4
2 3 3 3 3 2 3 3 3 3 2 2 2 1 1 2 2 2 2 3 3 3 2 2 2 3 2 1 1 2 2 1 1 3 3 3 3 3 3 3 4 4 4
2 2 3 3 3 3 3 4 4 3 2 1 0 0 1 2 2 2 3 3 3 2 2 2 2 2 3 1 1 1 1 3 2 1 2 3 3 3 3 3 3 3 4
2 2 2 3 3 3 3 4 4 3 2 1 1 2 2 2 2 2 2 3 3 2 2 2 2 2 1 2 1 1 1 2 2 2 1 2 2 2 2 2 2 2 3
1 2 2 3 2 2 3 3 4 4 4 3 2 1 1 1 1 1 2 2 2 2 2 2 2 2 1 2 1 1 2 2 2 2 2 1 1 2 2 2 2 2 2
Wind_Direction
264 271 151 106 99 97 97 97 100 101 99 99 100 98 100 97 94 91 88 86 85 83 81 78 74 74 74 73 72 72 75 73 71 70 68 69 71 71 80 87 88 86 99
172 202 140 114 106 101 99 102 101 102 102 102 102 101 99 96 94 91 88 86 85 84 83 79 76 74 71 71 70 70 68 69 67 65 61 60 63 68 78 85 91 96 101
108 100 123 120 113 107 104 104 103 104 104 103 102 100 100 99 96 91 86 84 84 84 81 78 75 72 70 70 68 67 63 62 62 63 53 35 40 67 74 82 90 96 103
111 95 114 119 114 112 109 106 103 102 101 102 104 102 100 97 96 94 89 85 82 81 78 77 75 73 72 69 67 66 64 59 58 59 43 27 25 62 70 73 83 91 97
97 85 110 114 110 109 111 109 105 103 105 105 104 101 99 96 95 94 92 87 84 80 78 78 77 76 73 69 67 64 61 58 54 49 40 28 20 53 67 69 73 80 90
92 82 98 106 110 110 109 111 112 111 109 107 106 103 101 96 96 94 91 87 85 82 79 79 77 75 74 70 68 63 60 59 50 39 37 29 23 52 66 70 73 78 87
101 76 87 102 109 113 114 110 113 115 112 109 102 99 98 97 95 91 89 87 85 84 82 79 76 77 74 69 66 62 61 61 53 39 30 24 35 60 67 69 71 76 83
111 83 63 96 97 100 108 109 105 111 113 112 104 98 95 93 90 87 85 85 85 83 80 78 77 74 70 65 64 66 64 57 49 38 27 20 48 58 65 66 69 77 80
84 72 46 41 60 71 87 95 99 107 112 112 107 100 92 88 84 84 87 84 84 83 79 76 76 73 69 65 65 66 64 55 42 28 28 19 54 60 62 62 64 72 79
84 77 63 48 44 36 39 68 79 90 100 104 102 97 85 71 68 76 80 83 85 81 77 74 74 72 70 66 63 64 61 48 31 24 15 37 61 64 65 64 66 70 72
88 69 82 78 59 42 26 44 57 68 71 77 82 75 65 42 33 46 65 77 78 76 72 72 70 67 65 62 61 61 56 36 24 19 13 50 61 61 63 66 72 73 71
176 216 121 108 84 51 39 42 33 49 48 50 53 59 56 47 34 45 55 69 71 67 65 69 68 64 58 47 50 53 44 33 27 17 32 51 59 59 60 61 72 72 71
206 211 167 155 116 84 51 51 39 42 46 47 45 53 63 54 41 41 45 44 50 55 51 54 56 52 55 53 49 45 38 34 22 15 30 50 56 59 60 62 70 70 70
162 202 204 156 123 107 78 65 69 60 56 55 37 59 80 72 55 49 53 47 50 52 59 57 61 57 59 58 58 53 44 37 25 16 26 44 52 56 60 63 64 65 67
150 174 134 127 122 120 105 91 95 88 74 76 67 65 91 96 86 71 61 56 55 59 70 70 69 65 61 56 55 57 48 40 32 29 18 35 45 48 54 61 66 67 67
173 181 129 124 125 122 122 115 102 93 78 71 82 81 89 98 102 95 78 65 60 64 74 80 80 76 64 60 54 49 46 40 34 32 25 25 34 39 46 54 63 67 69
178 165 150 145 125 127 129 121 106 105 102 91 82 86 95 102 103 103 97 84 79 82 80 77 73 74 70 61 52 42 42 39 38 34 28 22 21 30 37 46 56 63 64
157 159 160 143 130 133 127 103 87 87 95 85 79 80 94 102 106 100 100 91 88 88 88 88 82 78 69 64 54 37 35 34 35 36 32 28 24 23 26 35 43 52 58
164 157 144 121 132 133 115 92 79 75 73 74 75 80 92 95 97 103 105 104 101 94 91 102 85 92 90 78 69 50 36 36 33 36 34 29 28 28 24 26 33 41 48
153 146 130 114 117 112 94 78 67 63 56 57 65 77 88 90 92 100 103 106 107 103 92 95 96 80 90 91 78 59 43 39 39 35 31 32 31 31 31 28 24 26 36
132 132 137 125 120 114 108 110 102 84 57 45 41 66 87 95 99 101 103 104 105 111 116 113 106 91 76 88 82 54 32 40 46 34 26 33 29 27 33 32 27 24 24
160 157 154 145 137 140 136 129 121 115 91 70 38 50 72 98 110 116 114 117 114 110 102 104 111 105 78 62 102 93 30 9 17 27 25 36 24 23 30 32 28 25 20
177 180 174 162 148 146 127 104 87 67 52 41 30 25 32 100 107 108 118 116 113 115 122 124 130 128 133 48 74 128 133 191 336 358 20 28 22 24 17 21 26 20 20
202 178 163 157 151 148 135 132 133 129 134 182 178 96 55 80 98 106 113 114 112 111 119 134 118 124 134 142 56 60 126 151 145 4 350 4 16 24 11 16 14 11 12
180 160 153 145 143 143 140 145 137 129 139 119 91 80 67 52 66 89 110 113 115 115 121 115 104 103 125 143 147 127 92 75 111 144 245 330 356 352 352 352 359 3 2
145 145 142 138 135 137 141 142 148 150 145 129 125 119 80 46 41 62 99 109 119 121 129 132 122 118 112 112 120 134 149 151 164 150 173 219 296 313 338 349 352 352 356